Location: Angola by the Bay
(38.6709°N, 75.1746°W)
Time: 06:38:47
(UTC+00:00)

DIWATA 2B (PO-101) - Pass Details

Date: 14 December 2024
Orbit: 569 x 582 km, 98.1° (Epoch: 18 January)

Event Time Altitude Azimuth Distance (km) Brightness Sun altitude
Rises 22:54:16 0° 356° (N) 2,784 ? -14.0°
Reaches altitude 10° 22:56:50 10° 340° (NNW) 1,879 ? -14.5°
Maximum altitude 22:59:50 20° 292° (WNW) 1,334 ? -15.0°
Drops below altitude 10° 23:02:49 10° 244° (WSW) 1,866 ? -15.6°
Sets 23:05:22 0° 228° (SW) 2,758 ? -16.1°
